EW5393 Weather Reports


Display with metric or nautical units.
time (UTC)temp
F
wind
direction
speed
MPH
gust
MPH
rain 1hr
in
rain 24hr
in
rain mn
in
humidity
%
barometer
mb
20260508022306 63 238 2.0 8.0 0.00 0.00 0.00 29 1012.9
20260508021804 63 289 2.0 5.0 0.00 0.00 0.00 30 1012.9
20260508020804 63 340 3.0 7.0 0.00 0.00 0.00 30 1012.8
20260508020304 64 299 4.0 10.0 0.00 0.00 0.00 29 1012.9
20260508015804 64 251 2.0 3.0 0.00 0.00 0.00 29 1012.8
20260508015306 64 185 1.0 3.0 0.00 0.00 0.00 29 1012.6
20260508014804 64 116 1.0 3.0 0.00 0.00 0.00 29 1012.6
20260508014304 64 181 1.0 3.0 0.00 0.00 0.00 29 1012.6
20260508013304 64 112 1.0 3.0 0.00 0.00 0.00 29 1012.6
20260508012804 64 102 2.0 3.0 0.00 0.00 0.00 29 1012.6
20260508012307 64 137 1.0 5.0 0.00 0.00 0.00 28 1012.6
20260508011804 65 60 1.0 3.0 0.00 0.00 0.00 28 1012.4
20260508011304 65 118 1.0 2.0 0.00 0.00 0.00 28 1012.6
20260508010304 65 106 2.0 5.0 0.00 0.00 0.00 28 1012.5
20260508005803 65 93 2.0 6.0 0.00 0.00 0.00 28 1012.5
20260508004804 66 69 1.0 2.0 0.00 0.00 0.00 27 1012.5
20260508004304 66 120 1.0 9.0 0.00 0.00 0.00 27 1012.5
20260508003804 66 107 3.0 9.0 0.00 0.00 0.00 27 1012.5
20260508003303 66 105 2.0 5.0 0.00 0.00 0.00 27 1012.5
20260508002307 67 111 1.0 3.0 0.00 0.00 0.00 26 1012.5
20260508001804 67 73 2.0 7.0 0.00 0.00 0.00 27 1012.5
20260508000803 67 69 2.0 7.0 0.00 0.00 0.00 26 1012.4
20260508000305 67 106 2.0 3.0 0.00 0.00 0.00 26 1012.3
20260507235804 67 52 2.0 5.0 0.00 0.00 0.00 26 1012.4
20260507235306 67 114 1.0 12.0 0.00 0.00 0.00 26 1012.3
20260507234804 68 110 4.0 12.0 0.00 0.00 0.00 27 1012.3
20260507234304 68 91 2.0 6.0 0.00 0.00 0.00 26 1012.3
20260507233304 68 64 2.0 7.0 0.00 0.00 0.00 26 1012.2
20260507232804 68 97 3.0 8.0 0.00 0.00 0.00 26 1012.2
20260507232306 67 107 3.0 8.0 0.00 0.00 0.00 26 1012.3
20260507231803 67 2 1.0 6.0 0.00 0.00 0.00 27 1012.4
20260507231304 68 102 4.0 7.0 0.00 0.00 0.00 26 1012.2
20260507230804 68 53 2.0 6.0 0.00 0.00 0.00 27 1012.4
20260507230304 68 28 3.0 6.0 0.00 0.00 0.00 27 1012.3
20260507225804 68 57 4.0 7.0 0.00 0.00 0.00 26 1012.4
20260507225306 68 18 3.0 12.0 0.00 0.00 0.00 26 1012.4
20260507224804 68 104 3.0 5.0 0.00 0.00 0.00 26 1012.5
20260507224304 68 102 2.0 8.0 0.00 0.00 0.00 25 1012.4
20260507223803 68 45 2.0 9.0 0.00 0.00 0.00 26 1012.4
20260507223303 68 127 5.0 9.0 0.00 0.00 0.00 25 1012.4
20260507222803 68 124 3.0 10.0 0.00 0.00 0.00 25 1012.5
20260507221804 67 97 3.0 14.0 0.00 0.00 0.00 25 1012.4
20260507221303 67 119 3.0 7.0 0.00 0.00 0.00 26 1012.5
20260507220803 67 102 2.0 7.0 0.00 0.00 0.00 26 1012.4
20260507220304 67 86 2.0 6.0 0.00 0.00 0.00 27 1012.6
20260507215804 67 102 6.0 9.0 0.00 0.00 0.00 26 1012.4
20260507214804 67 111 3.0 9.0 0.00 0.00 0.00 26 1012.5
20260507214304 67 181 1.0 6.0 0.00 0.00 0.00 25 1012.5
20260507213304 67 98 1.0 7.0 0.00 0.00 0.00 25 1012.6
20260507212804 67 111 3.0 9.0 0.00 0.00 0.00 25 1012.8
20260507212306 68 124 3.0 10.0 0.00 0.00 0.00 25 1012.9
20260507211804 68 107 4.0 10.0 0.00 0.00 0.00 26 1013.0
20260507211304 68 102 3.0 8.0 0.00 0.00 0.00 26 1013.0
20260507210804 67 106 2.0 6.0 0.00 0.00 0.00 25 1012.9
20260507210304 68 132 3.0 6.0 0.00 0.00 0.00 25 1012.9
20260507205804 67 92 3.0 8.0 0.00 0.00 0.00 27 1012.9
20260507205306 67 170 1.0 3.0 0.00 0.00 0.00 28 1013.2
20260507204804 67 105 1.0 7.0 0.00 0.00 0.00 26 1013.0
20260507203804 66 56 2.0 6.0 0.00 0.00 0.00 27 1013.2
20260507202306 66 102 3.0 8.0 0.00 0.00 0.00 27 1013.2
20260507201804 67 126 6.0 14.0 0.00 0.00 0.00 27 1013.1
20260507201303 67 117 4.0 12.0 0.00 0.00 0.00 27 1013.2
20260507200804 67 86 6.0 13.0 0.00 0.00 0.00 27 1013.0
20260507200303 68 113 6.0 13.0 0.00 0.00 0.00 26 1013.2
20260507195305 69 22 3.0 9.0 0.00 0.00 0.00 26 1013.2
20260507194304 69 57 1.0 6.0 0.00 0.00 0.00 28 1013.2
20260507193804 69 120 3.0 16.0 0.00 0.00 0.00 27 1013.3
20260507192804 70 103 4.0 8.0 0.00 0.00 0.00 25 1013.3
20260507192306 70 51 3.0 8.0 0.00 0.00 0.00 27 1013.2
20260507191803 70 78 7.0 17.0 0.00 0.00 0.00 25 1013.2
20260507191304 70 18 2.0 8.0 0.00 0.00 0.00 28 1013.3
20260507190805 70 18 3.0 8.0 0.00 0.00 0.00 29 1013.4
20260507190304 69 86 5.0 9.0 0.00 0.00 0.00 27 1013.5
20260507185804 69 119 6.0 14.0 0.00 0.00 0.00 27 1013.5
20260507185305 68 29 2.0 14.0 0.00 0.00 0.00 28 1013.7
20260507184804 69 98 5.0 14.0 0.00 0.00 0.00 28 1013.5
20260507184304 68 102 4.0 9.0 0.00 0.00 0.00 27 1013.6
20260507183304 68 95 4.0 14.0 0.00 0.00 0.00 27 1013.7
20260507182804 68 95 3.0 10.0 0.00 0.00 0.00 27 1013.5
20260507182306 68 101 3.0 10.0 0.00 0.00 0.00 27 1013.5
20260507181304 69 104 4.0 8.0 0.00 0.00 0.00 28 1013.4
20260507180804 68 87 3.0 12.0 0.00 0.00 0.00 31 1013.4
20260507180304 68 109 5.0 12.0 0.00 0.00 0.00 28 1013.5
20260507175803 68 150 3.0 10.0 0.00 0.00 0.00 29 1013.5
20260507175307 68 110 5.0 12.0 0.00 0.00 0.00 28 1013.4
20260507174804 68 96 5.0 13.0 0.00 0.00 0.00 28 1013.3
20260507173804 68 122 3.0 9.0 0.00 0.00 0.00 29 1013.6
20260507172804 67 122 3.0 12.0 0.00 0.00 0.00 29 1013.6
20260507172307 68 110 6.0 12.0 0.00 0.00 0.00 28 1013.8
20260507171804 69 339 3.0 10.0 0.00 0.00 0.00 28 1013.7
20260507171304 69 103 3.0 7.0 0.00 0.00 0.00 29 1013.7
20260507170804 69 99 3.0 9.0 0.00 0.00 0.00 30 1013.9
20260507170304 68 119 6.0 12.0 0.00 0.00 0.00 30 1014.0
20260507165804 68 103 5.0 15.0 0.00 0.00 0.00 29 1013.7
20260507164803 69 107 3.0 12.0 0.00 0.00 0.00 29 1013.8
20260507164304 69 103 5.0 9.0 0.00 0.00 0.00 28 1013.9
20260507163803 69 124 6.0 12.0 0.00 0.00 0.00 29 1013.9
20260507163304 68 104 5.0 14.0 0.00 0.00 0.00 29 1013.8
20260507162804 68 76 3.0 9.0 0.00 0.00 0.00 32 1013.8
20260507162307 67 63 2.0 9.0 0.00 0.00 0.00 31 1013.9
20260507161804 66 40 5.0 13.0 0.00 0.00 0.00 32 1014.0
20260507161303 65 111 6.0 12.0 0.00 0.00 0.00 33 1013.9
20260507160804 64 83 5.0 12.0 0.00 0.00 0.00 34 1014.0
20260507160304 62 115 5.0 10.0 0.00 0.00 0.00 34 1014.1
20260507155804 62 88 5.0 12.0 0.00 0.00 0.00 34 1014.0
20260507154803 65 66 6.0 15.0 0.00 0.00 0.00 32 1014.2
20260507154304 66 57 4.0 10.0 0.00 0.00 0.00 33 1014.1
20260507153804 65 85 3.0 12.0 0.00 0.00 0.00 33 1014.3
20260507153304 65 110 6.0 13.0 0.00 0.00 0.00 32 1014.2
20260507152804 65 107 7.0 13.0 0.00 0.00 0.00 32 1014.2
20260507152306 64 119 6.0 15.0 0.00 0.00 0.00 33 1014.2
20260507151804 63 73 3.0 9.0 0.00 0.00 0.00 34 1014.2
20260507151304 64 47 6.0 18.0 0.00 0.00 0.00 33 1014.2
20260507150804 64 54 6.0 12.0 0.00 0.00 0.00 34 1014.4
20260507150304 63 11 3.0 8.0 0.00 0.00 0.00 36 1014.5
20260507145306 60 41 3.0 7.0 0.00 0.00 0.00 41 1014.2
20260507144803 59 149 3.0 8.0 0.00 0.00 0.00 41 1014.4
20260507144304 60 33 3.0 7.0 0.00 0.00 0.00 41 1014.4
20260507143304 60 114 5.0 12.0 0.00 0.00 0.00 41 1014.1
20260507142804 60 41 3.0 9.0 0.00 0.00 0.00 42 1014.1
20260507142306 59 86 3.0 7.0 0.00 0.00 0.00 42 1014.1
20260507141804 58 101 3.0 7.0 0.00 0.00 0.00 44 1014.2
20260507141304 58 92 3.0 7.0 0.00 0.00 0.00 44 1014.1
20260507140804 57 85 2.0 6.0 0.00 0.00 0.00 45 1014.0
20260507140303 56 96 2.0 6.0 0.00 0.00 0.00 47 1014.1
20260507135306 56 100 2.0 5.0 0.00 0.00 0.00 47 1013.8
20260507134803 55 347 2.0 7.0 0.00 0.00 0.00 49 1013.8
20260507134303 54 6 2.0 6.0 0.00 0.00 0.00 50 1013.8
20260507132307 51 85 1.0 5.0 0.00 0.00 0.00 52 1013.6
20260507131804 51 45 2.0 3.0 0.00 0.00 0.00 53 1013.6
20260507131304 51 60 1.0 5.0 0.00 0.00 0.00 53 1013.4
20260507130804 51 3 1.0 3.0 0.00 0.00 0.00 53 1013.4
20260507130303 51 47 1.0 3.0 0.00 0.00 0.00 53 1013.5
20260507125804 51 5 1.0 3.0 0.00 0.00 0.00 53 1013.5
20260507124804 51 18 1.0 3.0 0.00 0.00 0.00 53 1013.3
20260507124304 51 75 1.0 5.0 0.00 0.00 0.00 54 1013.6
20260507123804 51 97 2.0 5.0 0.00 0.00 0.00 53 1013.4
20260507123304 51 77 2.0 6.0 0.00 0.00 0.00 54 1013.3
20260507122804 51 69 2.0 8.0 0.00 0.00 0.00 54 1013.6
20260507122307 51 38 2.0 7.0 0.00 0.00 0.00 54 1013.3
20260507121804 51 42 1.0 5.0 0.00 0.00 0.00 54 1013.4
20260507121304 50 64 2.0 5.0 0.00 0.00 0.00 54 1013.2
20260507120804 50 91 2.0 5.0 0.00 0.00 0.00 54 1013.3
20260507120304 50 10 2.0 5.0 0.00 0.00 0.00 54 1013.2
20260507115307 50 0 2.0 7.0 0.00 0.00 0.00 54 1013.1
20260507114804 49 47 2.0 3.0 0.00 0.00 0.00 54 1013.0
20260507114304 50 47 1.0 3.0 0.00 0.00 0.00 53 1012.9
20260507113804 50 19 1.0 3.0 0.00 0.00 0.00 53 1013.1
20260507113304 50 23 1.0 3.0 0.00 0.00 0.00 53 1012.8
20260507112804 50 44 1.0 2.0 0.00 0.00 0.00 54 1012.7
20260507111804 51 15 1.0 3.0 0.00 0.00 0.00 55 1012.8
20260507111304 51 57 1.0 3.0 0.00 0.00 0.00 55 1012.7
20260507110804 51 32 1.0 2.0 0.00 0.00 0.00 56 1012.7
20260507110303 51 29 1.0 2.0 0.00 0.00 0.00 55 1012.8
20260507105803 51 15 2.0 3.0 0.00 0.00 0.00 55 1012.7
20260507105306 51 28 1.0 2.0 0.00 0.00 0.00 56 1012.7
20260507104803 51 355 1.0 2.0 0.00 0.00 0.00 56 1012.8
20260507104304 51 43 1.0 5.0 0.00 0.00 0.00 56 1012.7
20260507103304 51 39 1.0 2.0 0.00 0.00 0.00 56 1012.6
20260507102804 51 37 1.0 2.0 0.00 0.00 0.00 55 1012.5
20260507102306 51 20 1.0 5.0 0.00 0.00 0.00 56 1012.5
20260507101804 52 12 2.0 3.0 0.00 0.00 0.00 57 1012.7
20260507101304 52 84 2.0 5.0 0.00 0.00 0.00 57 1012.7
20260507100804 52 23 1.0 3.0 0.00 0.00 0.00 58 1012.6
20260507100304 52 28 2.0 3.0 0.00 0.00 0.00 59 1012.8
20260507095804 52 357 1.0 3.0 0.00 0.00 0.00 60 1012.6
20260507095306 52 55 1.0 5.0 0.00 0.00 0.00 62 1012.8
20260507094804 52 346 1.0 5.0 0.00 0.00 0.00 62 1012.7
20260507094304 52 341 1.0 5.0 0.00 0.00 0.00 62 1012.8
20260507093804 52 340 2.0 6.0 0.00 0.00 0.00 63 1012.6
20260507093304 51 31 2.0 7.0 0.00 0.00 0.00 64 1012.7
20260507092804 51 338 3.0 8.0 0.00 0.00 0.00 63 1012.5
20260507092306 51 10 1.0 2.0 0.00 0.00 0.00 62 1012.5
20260507091803 51 3 2.0 8.0 0.00 0.00 0.00 63 1012.6
20260507085804 51 56 0.0 1.0 0.00 0.00 0.00 62 1012.6
20260507083804 51 337 0.0 3.0 0.00 0.00 0.00 61 1012.3
20260507083304 51 344 1.0 2.0 0.00 0.00 0.00 60 1012.4
20260507082306 51 335 1.0 3.0 0.00 0.00 0.00 60 1012.6
20260507081804 51 339 2.0 2.0 0.00 0.00 0.00 59 1012.4
20260507081304 51 349 1.0 2.0 0.00 0.00 0.00 59 1012.4
20260507080804 51 322 1.0 2.0 0.00 0.00 0.00 58 1012.5
20260507080304 51 351 1.0 2.0 0.00 0.00 0.00 59 1012.4
20260507075306 51 4 0.0 0.0 0.00 0.00 0.00 58 1012.6
20260507074804 51 4 0.0 0.0 0.00 0.00 0.00 58 1012.6
20260507073803 51 14 1.0 3.0 0.00 0.00 0.00 57 1012.7
20260507073304 51 340 2.0 3.0 0.00 0.00 0.00 53 1012.6
20260507072804 51 27 0.0 0.0 0.00 0.00 0.00 52 1012.8
20260507072306 51 27 0.0 0.0 0.00 0.00 0.00 52 1012.6
20260507071805 51 27 0.0 1.0 0.00 0.00 0.00 52 1012.6
20260507071304 51 28 0.0 0.0 0.00 0.00 0.00 54 1012.6
20260507070804 51 27 0.0 1.0 0.00 0.00 0.00 51 1012.9
20260507070304 51 27 0.0 2.0 0.00 0.00 0.00 51 1012.7
20260507065804 51 36 0.0 1.0 0.00 0.00 0.00 52 1012.7
20260507065306 51 39 0.0 1.0 0.00 0.00 0.00 51 1012.8
20260507064804 51 53 1.0 1.0 0.00 0.00 0.00 49 1012.7
20260507064304 51 58 0.0 1.0 0.00 0.00 0.00 49 1012.9
20260507063804 51 60 0.0 0.0 0.00 0.00 0.00 49 1012.8
20260507062306 51 114 2.0 6.0 0.00 0.00 0.00 50 1012.8
20260507061804 51 342 1.0 3.0 0.00 0.00 0.00 49 1012.7
20260507060804 52 44 0.0 0.0 0.00 0.00 0.00 48 1012.7
20260507060304 52 17 0.0 2.0 0.00 0.00 0.00 48 1012.8
20260507055306 52 109 1.0 3.0 0.00 0.00 0.00 49 1012.7
20260507054804 51 104 2.0 3.0 0.00 0.00 0.00 49 1012.7
20260507054304 52 53 0.0 0.0 0.00 0.00 0.00 48 1012.2
20260507053304 52 106 1.0 2.0 0.00 0.00 0.00 49 1012.0
20260507052804 52 105 1.0 2.0 0.00 0.00 0.00 49 1012.1
20260507052306 52 126 1.0 3.0 0.00 0.00 0.00 47 1012.0
20260507051804 52 193 0.0 1.0 0.00 0.00 0.00 44 1012.0
20260507051304 52 318 0.0 1.0 0.00 0.00 0.00 45 1011.7
20260507050803 53 287 1.0 2.0 0.00 0.00 0.00 44 1011.8
20260507050304 53 169 0.0 2.0 0.00 0.00 0.00 44 1011.9
20260507045804 53 305 0.0 1.0 0.00 0.00 0.00 45 1011.9
20260507045306 53 304 0.0 1.0 0.00 0.00 0.00 44 1011.8
20260507044804 54 300 1.0 1.0 0.00 0.00 0.00 44 1011.7
20260507044303 54 131 0.0 2.0 0.00 0.00 0.00 44 1011.8
20260507043804 54 82 0.0 2.0 0.00 0.00 0.00 45 1011.8
20260507043303 54 138 0.0 2.0 0.00 0.00 0.00 46 1011.7
20260507042804 54 156 0.0 2.0 0.00 0.00 0.00 46 1011.5
20260507042306 55 163 0.0 1.0 0.00 0.00 0.00 46 1011.5
20260507041804 55 156 1.0 2.0 0.00 0.00 0.00 45 1011.2
20260507041304 55 201 1.0 2.0 0.00 0.00 0.00 45 1011.0
20260507040804 55 121 1.0 2.0 0.00 0.00 0.00 45 1011.1
20260507040303 55 206 1.0 1.0 0.00 0.00 0.00 44 1010.8
20260507035803 55 283 1.0 2.0 0.00 0.00 0.00 44 1010.8
20260507035306 56 283 0.0 1.0 0.00 0.00 0.00 42 1010.9
20260507034803 56 276 0.0 2.0 0.00 0.00 0.00 42 1010.8
20260507034304 56 284 1.0 2.0 0.00 0.00 0.00 41 1010.7
20260507033804 56 315 1.0 2.0 0.00 0.00 0.00 41 1010.5
20260507033304 57 286 1.0 2.0 0.00 0.00 0.00 41 1010.5
20260507032804 57 267 1.0 2.0 0.00 0.00 0.00 40 1010.4
20260507031804 58 270 2.0 6.0 0.00 0.00 0.00 39 1010.3
20260507031304 58 264 1.0 3.0 0.00 0.00 0.00 38 1010.2
20260507030804 58 191 2.0 6.0 0.00 0.00 0.00 38 1010.2
20260507030304 59 275 2.0 6.0 0.00 0.00 0.00 37 1010.1
20260507025306 59 226 1.0 7.0 0.00 0.00 0.00 36 1010.0
20260507024803 60 230 3.0 6.0 0.00 0.00 0.00 35 1009.8
20260507024304 60 204 2.0 7.0 0.00 0.00 0.00 35 1009.8
20260507023805 60 126 2.0 7.0 0.00 0.00 0.00 34 1009.6
20260507023304 61 163 3.0 9.0 0.00 0.00 0.00 34 1009.8
20260507022803 61 138 3.0 7.0 0.00 0.00 0.00 33 1009.6